H1 CPF 2 NER 2022 2 26 9 057 01 glonass134 H2 1407501 9134 40315 2022 2 26 0 0 0 2022 3 1 23 45 0 900 1 1 0 0 0 1 H9 10 0 59636 0.00000 0 -6989032.981 -20388970.130 13598588.631 10 0 59636 900.00000 0 -7134588.057 -21895292.257 10907195.442 10 0 59636 1800.00000 0 -7346188.671 -23045089.277 8003249.457 10 0 59636 2700.00000 0 -7572176.576 -23815382.070 4943271.466 10 0 59636 3600.00000 0 -7758499.646 -24195935.577 1786884.612 10 0 59636 4500.00000 0 -7851233.581 -24189579.705 -1404359.513 10 0 59636 5400.00000 0 -7799109.365 -23811994.758 -4568196.976 10 0 59636 6300.00000 0 -7555937.030 -23090970.097 -7642884.406 10 0 59636 7200.00000 0 -7082820.488 -22065167.656 -10568422.548 10 0 59636 8100.00000 0 -6350067.158 -20782443.399 -13287744.598 10 0 59636 9000.00000 0 -5338709.341 -19297798.980 -15747844.304 10 0 59636 9900.00000 0 -4041571.276 -17671051.746 -17900820.191 10 0 59636 10800.00000 0 -2463835.596 -15964323.128 -19704814.592 10 0 59636 11700.00000 0 -623084.632 -14239452.771 -21124828.699 10 0 59636 12600.00000 0 1451185.270 -12555448.498 -22133397.806 10 0 59636 13500.00000 0 3718555.770 -10966079.860 -22711114.321 10 0 59636 14400.00000 0 6129142.805 -9517716.239 -22846989.422 10 0 59636 15300.00000 0 8625455.489 -8247499.363 -22538647.770 10 0 59636 16200.00000 0 11144579.509 -7181925.346 -21792353.061 10 0 59636 17100.00000 0 13620593.622 -6335893.491 -20622865.552 10 0 59636 18000.00000 0 15987118.539 -5712259.255 -19053135.869 10 0 59636 18900.00000 0 18179892.510 -5301907.382 -17113842.352 10 0 59636 19800.00000 0 20139267.315 -5084339.380 -14842781.981 10 0 59636 20700.00000 0 21812521.910 -5028748.282 -12284127.499 10 0 59636 21600.00000 0 23155899.106 -5095533.446 -9487565.575 10 0 59636 22500.00000 0 24136282.200 -5238190.140 -6507332.848 10 0 59636 23400.00000 0 24732443.574 -5405493.475 -3401168.453 10 0 59636 24300.00000 0 24935815.068 -5543884.289 -229202.921 10 0 59636 25200.00000 0 24750749.616 -5599956.582 2947195.679 10 0 59636 26100.00000 0 24194264.517 -5522942.152 6066596.754 10 0 59636 27000.00000 0 23295277.993 -5267088.423 9068681.621 10 0 59636 27900.00000 0 22093371.287 -4793829.958 11895395.782 10 0 59636 28800.00000 0 20637127.887 -4073662.828 14492057.838 10 0 59636 29700.00000 0 18982118.671 -3087643.113 16808404.867 10 0 59636 30600.00000 0 17188615.993 -1828446.249 18799555.219 10 0 59636 31500.00000 0 15319130.890 -300941.868 20426871.051 10 0 59636 32400.00000 0 13435874.631 1477741.560 21658704.801 10 0 59636 33300.00000 0 11598249.036 3478667.141 22471015.586 10 0 59636 34200.00000 0 9860468.974 5662038.835 22847843.682 10 0 59636 35100.00000 0 8269415.198 7978612.913 22781633.554 10 0 59636 36000.00000 0 6862806.529 10371515.819 22273398.322 10 0 59636 36900.00000 0 5667767.631 12778395.470 21332721.216 10 0 59636 37800.00000 0 4699852.543 15133818.878 19977592.355 10 0 59636 38700.00000 0 3962565.527 17371818.083 18234082.142 10 0 59636 39600.00000 0 3447400.262 19428479.304 16135855.647 10 0 59636 40500.00000 0 3134396.756 21244467.665 13723535.576 10 0 59636 41400.00000 0 2993193.356 22767381.575 11043924.586 10 0 59636 42300.00000 0 2984530.119 23953837.135 8149100.981 10 0 59636 43200.00000 0 3062140.114 24771193.761 5095404.832 10 0 59636 44100.00000 0 3174948.141 25198846.846 1942334.280 10 0 59636 45000.00000 0 3269482.674 25229031.458 -1248625.655 10 0 59636 45900.00000 0 3292397.081 24867101.895 -4415217.698 10 0 59636 46800.00000 0 3192991.053 24131274.454 -7495644.965 10 0 59636 47700.00000 0 2925622.935 23051843.991 -10429795.555 10 0 59636 48600.00000 0 2451908.167 21669907.717 -13160433.171 10 0 59636 49500.00000 0 1742608.394 20035650.980 -15634328.708 10 0 59636 50400.00000 0 779129.346 18206268.704 -17803309.092 10 0 59636 51300.00000 0 -445437.300 16243611.630 -19625201.913 10 0 59636 52200.00000 0 -1925772.980 14211657.947 -21064656.926 10 0 59636 53100.00000 0 -3644315.324 12173917.953 -22093828.443 10 0 59636 54000.00000 0 -5571765.883 10190881.492 -22692906.003 10 0 59636 54900.00000 0 -7668100.734 8317615.369 -22850484.056 10 0 59636 55800.00000 0 -9884040.900 6601610.896 -22563764.854 10 0 59636 56700.00000 0 -12162920.442 5080970.351 -21838592.230 10 0 59636 57600.00000 0 -14442873.622 3783006.264 -20689317.223 10 0 59636 58500.00000 0 -16659249.546 2723309.707 -19138499.703 10 0 59636 59400.00000 0 -18747153.701 1905323.712 -17216453.155 10 0 59636 60300.00000 0 -20644010.941 1320436.726 -14960642.504 10 0 59636 61200.00000 0 -22292043.916 948589.410 -12414947.488 10 0 59636 62100.00000 0 -23640564.911 759366.731 -9628806.317 10 0 59636 63000.00000 0 -24647987.013 713527.423 -6656256.345 10 0 59636 63900.00000 0 -25283472.286 764905.045 -3554890.293 10 0 59636 64800.00000 0 -25528149.857 862599.699 -384747.826 10 0 59636 65700.00000 0 -25375854.518 953367.802 2792836.685 10 0 59636 66600.00000 0 -24833356.232 984109.423 5916408.616 10 0 59636 67500.00000 0 -23920071.803 904348.840 8925568.070 10 0 59636 68400.00000 0 -22667271.129 668604.505 11762123.731 10 0 59636 69300.00000 0 -21116811.068 238549.269 14371204.412 10 0 59636 70200.00000 0 -19319449.166 -415129.644 16702308.017 10 0 59636 71100.00000 0 -17332806.480 -1311249.072 18710268.845 10 0 59636 72000.00000 0 -15219063.093 -2457089.494 20356125.458 10 0 59636 72900.00000 0 -13042480.693 -3847840.500 21607873.206 10 0 59636 73800.00000 0 -10866853.698 -5466557.170 22441087.334 10 0 59636 74700.00000 0 -8752993.532 -7284631.431 22839404.675 10 0 59636 75600.00000 0 -6756349.433 -9262761.429 22794854.286 10 0 59636 76500.00000 0 -4924863.901 -11352381.411 22308029.814 10 0 59636 77400.00000 0 -3297151.709 -13497495.291 21388098.962 10 0 59636 78300.00000 0 -1901078.317 -15636840.085 20052648.291 10 0 59636 79200.00000 0 -752797.452 -17706291.114 18327364.471 10 0 59636 80100.00000 0 143711.207 -19641409.968 16245556.224 10 0 59636 81000.00000 0 796584.042 -21380029.509 13847524.403 10 0 59636 81900.00000 0 1225496.887 -22864767.669 11179790.802 10 0 59636 82800.00000 0 1460593.414 -24045363.830 8294199.614 10 0 59636 83700.00000 0 1540963.576 -24880738.410 5246908.417 10 0 59636 84600.00000 0 1512736.698 -25340687.300 2097288.314 10 0 59636 85500.00000 0 1426870.781 -25407137.969 -1093244.522 10 0 59637 0.00000 0 1336733.174 -25074912.619 -4262441.677 10 0 59637 900.00000 0 1295577.114 -24351964.598 -7348456.024 10 0 59637 1800.00000 0 1354023.548 -23259077.795 -10291065.592 10 0 59637 2700.00000 0 1557657.330 -21829040.888 -13032867.594 10 0 59637 3600.00000 0 1944842.165 -20105332.033 -15520413.144 10 0 59637 4500.00000 0 2544848.891 -18140370.279 -17705260.622 10 0 59637 5400.00000 0 3376377.906 -15993408.620 -19544925.804 10 0 59637 6300.00000 0 4446539.291 -13728158.690 -21003709.717 10 0 59637 7200.00000 0 5750334.162 -11410248.211 -22053388.092 10 0 59637 8100.00000 0 7270659.047 -9104618.781 -22673749.613 10 0 59637 9000.00000 0 8978832.760 -6872973.377 -22852973.587 10 0 59637 9900.00000 0 10835622.853 -4771380.209 -22587841.007 10 0 59637 10800.00000 0 12792727.868 -2848132.066 -21883776.562 10 0 59637 11700.00000 0 14794652.581 -1141948.892 -20754722.361 10 0 59637 12600.00000 0 16780897.220 319403.542 -19222847.392 10 0 59637 13500.00000 0 18688368.942 1520023.951 -17318099.732 10 0 59637 14400.00000 0 20453914.998 2456279.786 -15077611.252 10 0 59637 15300.00000 0 22016872.276 3136691.505 -12544967.221 10 0 59637 16200.00000 0 23321527.664 3581304.603 -9769355.463 10 0 59637 17100.00000 0 24319387.670 3820578.252 -6804611.669 10 0 59637 18000.00000 0 24971163.828 3893839.161 -3708179.359 10 0 59637 18900.00000 0 25248392.361 3847367.046 -540004.225 10 0 59637 19800.00000 0 25134621.786 3732193.059 2638616.378 10 0 59637 20700.00000 0 24626119.902 3601703.998 5766207.221 10 0 59637 21600.00000 0 23732071.467 3509152.993 8782290.591 10 0 59637 22500.00000 0 22474258.583 3505180.909 11628541.641 10 0 59637 23400.00000 0 20886237.052 3635452.133 14249902.479 10 0 59637 24300.00000 0 19012042.416 3938503.645 16595634.682 10 0 59637 25200.00000 0 16904478.488 4443897.460 18620291.054 10 0 59637 26100.00000 0 14623058.251 5170754.152 20284588.823 10 0 59637 27000.00000 0 12231681.045 6126729.638 21556168.200 10 0 59637 27900.00000 0 9796140.789 7307479.379 22410222.173 10 0 59637 28800.00000 0 7381567.066 8696634.236 22829985.387 10 0 59637 29700.00000 0 5049903.787 10266291.350 22807072.374 10 0 59637 30600.00000 0 2857528.948 11978002.197 22341657.755 10 0 59637 31500.00000 0 853113.685 13784219.311 21442493.719 10 0 59637 32400.00000 0 -924190.671 15630143.911 20126762.820 10 0 59637 33300.00000 0 -2446161.921 17455899.586 18419767.090 10 0 59637 34200.00000 0 -3696453.357 19198942.871 16354457.577 10 0 59637 35100.00000 0 -4671036.936 20796610.872 13970811.567 10 0 59637 36000.00000 0 -5378123.943 22188699.482 11315067.943 10 0 59637 36900.00000 0 -5837565.794 23319963.437 8438834.456 10 0 59637 37800.00000 0 -6079759.914 24142431.965 5398083.605 10 0 59637 38700.00000 0 -6144106.977 24617440.896 2252056.694 10 0 59637 39600.00000 0 -6077085.309 24717293.594 -937901.872 10 0 59637 40500.00000 0 -5930025.256 24426478.683 -4109556.106 10 0 59637 41400.00000 0 -5756679.528 23742391.388 -7201010.507 10 0 59637 42300.00000 0 -5610694.652 22675526.683 -10151936.569 10 0 59637 43200.00000 0 -5543093.151 21249135.342 -12904767.835 10 0 59637 44100.00000 0 -5599875.512 19498357.199 -15405838.263 10 0 59637 45000.00000 0 -5819845.727 17468868.616 -17606440.081 10 0 59637 45900.00000 0 -6232754.174 15215101.982 -19463779.380 10 0 59637 46800.00000 0 -6857837.630 12798113.208 -20941810.320 10 0 59637 47700.00000 0 -7702818.682 10283188.022 -22011931.609 10 0 59637 48600.00000 0 -8763406.797 7737288.384 -22653532.347 10 0 59637 49500.00000 0 -10023321.652 5226446.461 -22854377.622 10 0 59637 50400.00000 0 -11454836.914 2813215.237 -22610827.731 10 0 59637 51300.00000 0 -13019820.682 554281.543 -21927888.368 10 0 59637 52200.00000 0 -14671227.940 -1501660.274 -20819092.424 10 0 59637 53100.00000 0 -16354981.575 -3315687.204 -19306217.273 10 0 59637 54000.00000 0 -18012162.630 -4860007.363 -17418844.418 10 0 59637 54900.00000 0 -19581417.858 -6118846.824 -15193771.126 10 0 59637 55800.00000 0 -21001483.972 -7088829.504 -12674286.334 10 0 59637 56700.00000 0 -22213723.515 -7778837.249 -9909325.350 10 0 59637 57600.00000 0 -23164567.144 -8209358.773 -6952519.889 10 0 59637 58500.00000 0 -23807761.175 -8411357.081 -3861161.823 10 0 59637 59400.00000 0 -24106327.612 -8424704.711 -695100.310 10 0 59637 60300.00000 0 -24034155.783 -8296253.766 2484406.951 10 0 59637 61200.00000 0 -23577160.054 -8077622.463 5615866.832 10 0 59637 62100.00000 0 -22733955.918 -7822791.344 8638726.548 10 0 59637 63000.00000 0 -21516026.501 -7585609.971 11494530.472 10 0 59637 63900.00000 0 -19947372.431 -7417318.295 14128036.697 10 0 59637 64800.00000 0 -18063658.998 -7364186.306 16488273.024 10 0 59637 65700.00000 0 -15910894.999 -7465370.539 18529513.118 10 0 59637 66600.00000 0 -13543696.796 -7751077.189 20212154.929 10 0 59637 67500.00000 0 -11023207.864 -8241109.082 21503485.255 10 0 59637 68400.00000 0 -8414758.260 -8943858.144 22378316.167 10 0 59637 69300.00000 0 -5785359.215 -9855786.853 22819481.079 10 0 59637 70200.00000 0 -3201134.926 -10961422.236 22818180.565 10 0 59637 71100.00000 0 -724796.538 -12233864.929 22374170.454 10 0 59637 72000.00000 0 1586737.889 -13635794.527 21495787.332 10 0 59637 72900.00000 0 3684479.242 -15120931.729 20199809.373 10 0 59637 73800.00000 0 5529170.394 -16635898.487 18511153.345 10 0 59637 74700.00000 0 7092680.950 -18122400.161 16462411.731 10 0 59637 75600.00000 0 8358934.943 -19519639.553 14093237.091 10 0 59637 76500.00000 0 9324331.911 -20766862.109 11449583.972 10 0 59637 77400.00000 0 9997642.930 -21805925.108 8582821.969 10 0 59637 78300.00000 0 10399385.501 -22583781.791 5548736.535 10 0 59637 79200.00000 0 10560703.484 -23054774.217 2406436.964 10 0 59637 80100.00000 0 10521799.704 -23182636.147 -782806.504 10 0 59637 81000.00000 0 10329988.445 -22942119.242 -3956772.574 10 0 59637 81900.00000 0 10037451.760 -22320171.784 -7053520.589 10 0 59637 82800.00000 0 9698796.544 -21316618.375 -10012617.924 10 0 59637 83700.00000 0 9368518.152 -19944310.564 -12776337.175 10 0 59637 84600.00000 0 9098480.381 -18228741.338 -15290797.848 10 0 59637 85500.00000 0 8935520.729 -16207139.659 -17507028.626 10 0 59638 0.00000 0 8919284.177 -13927083.787 -19381928.234 10 0 59638 900.00000 0 9080378.488 -11444691.231 -20879106.539 10 0 59638 1800.00000 0 9438929.671 -8822465.505 -21969587.004 10 0 59638 2700.00000 0 10003598.679 -6126886.750 -22632360.758 10 0 59638 3600.00000 0 10771100.422 -3425850.772 -22854779.917 10 0 59638 4500.00000 0 11726244.358 -786062.628 -22632784.953 10 0 59638 5400.00000 0 12842493.835 1729506.619 -21970963.059 10 0 59638 6300.00000 0 14083019.381 4063994.930 -20882438.052 10 0 59638 7200.00000 0 15402200.465 6168758.663 -19388595.483 10 0 59638 8100.00000 0 16747511.757 8005130.613 -17518649.728 10 0 59638 9000.00000 0 18061714.108 9545756.118 -15309062.540 10 0 59638 9900.00000 0 19285258.097 10775454.357 -12802825.229 10 0 59638 10800.00000 0 20358799.543 11691571.932 -10048618.916 10 0 59638 11700.00000 0 21225722.077 12303816.865 -7099869.275 10 0 59638 12600.00000 0 21834561.823 12633582.498 -4013714.101 10 0 59638 13500.00000 0 22141233.565 12712791.791 -849903.294 10 0 59638 14400.00000 0 22110966.192 12582312.060 2330348.061 10 0 59638 15300.00000 0 21719867.234 12290007.643 5465532.024 10 0 59638 16200.00000 0 20956051.711 11888512.689 8495023.863 10 0 59638 17100.00000 0 19820288.372 11432817.522 11360240.242 10 0 59638 18000.00000 0 18326136.183 10977769.481 14005758.195 10 0 59638 18900.00000 0 16499564.750 10575592.516 16380374.528 10 0 59638 19800.00000 0 14378073.278 10273528.954 18438086.334 10 0 59638 20700.00000 0 12009343.249 10111701.813 20138974.612 10 0 59638 21600.00000 0 9449478.828 10121287.058 21449974.791 10 0 59638 22500.00000 0 6760905.888 10323072.612 22345519.766 10 0 59638 23400.00000 0 4010014.651 10726465.199 22808043.096 10 0 59638 24300.00000 0 1264641.546 11328987.877 22828332.384 10 0 59638 25200.00000 0 -1408507.213 12116291.049 22405725.195 10 0 59638 26100.00000 0 -3946384.876 13062678.615 21548142.563 10 0 59638 27000.00000 0 -6291982.269 14132129.511 20271957.828 10 0 59638 27900.00000 0 -8396456.460 15279774.120 18601701.540 10 0 59638 28800.00000 0 -10220921.226 16453765.616 16569606.203 10 0 59638 29700.00000 0 -11737824.292 17597469.188 14214997.838 10 0 59638 30600.00000 0 -12931853.017 18651878.054 11583544.506 10 0 59638 31500.00000 0 -13800329.735 19558154.628 8726375.258 10 0 59638 32400.00000 0 -14353079.460 20260189.195 5699085.937 10 0 59638 33300.00000 0 -14611775.084 20707066.762 2560651.134 10 0 59638 34200.00000 0 -14608787.669 20855336.052 -627735.833 10 0 59638 35100.00000 0 -14385590.973 20670982.549 -3803871.165 10 0 59638 36000.00000 0 -13990788.814 20131019.877 -6905771.847 10 0 59638 36900.00000 0 -13477850.408 19224630.134 -9872903.898 10 0 59638 37800.00000 0 -12902651.625 17953803.232 -12647381.615 10 0 59638 38700.00000 0 -12320928.514 16333447.012 -15175112.547 10 0 59638 39600.00000 0 -11785753.106 14390962.890 -17406864.124 10 0 59638 40500.00000 0 -11345140.223 12165304.872 -19299230.048 10 0 59638 41400.00000 0 -11039887.979 9705561.884 -20815476.997 10 0 59638 42300.00000 0 -10901744.041 7069123.777 -21926255.039 10 0 59638 43200.00000 0 -10951975.294 4319508.679 -22610158.514 10 0 59638 44100.00000 0 -11200400.748 1523943.321 -22854127.436 10 0 59638 45000.00000 0 -11644927.478 -1249202.048 -22653682.969 10 0 59638 45900.00000 0 -12271607.724 -3933017.223 -22012993.959 10 0 59638 46800.00000 0 -13055213.190 -6464586.180 -20944774.907 10 0 59638 47700.00000 0 -13960300.754 -8787347.371 -19470018.911 10 0 59638 48600.00000 0 -14942723.404 -10853183.747 -17617572.200 10 0 59638 49500.00000 0 -15951521.767 -12624157.782 -15423559.636 10 0 59638 50400.00000 0 -16931116.053 -14073821.791 -12930673.229 10 0 59638 51300.00000 0 -17823706.084 -15188051.805 -10187337.976 10 0 59638 52200.00000 0 -18571778.754 -15965373.068 -7246771.376 10 0 59638 53100.00000 0 -19120618.118 -16416766.133 -4165954.858 10 0 59638 54000.00000 0 -19420713.526 -16564964.045 -1004536.634 10 0 59638 54900.00000 0 -19429965.577 -16443271.849 2176313.368 10 0 59638 55800.00000 0 -19115598.229 -16093959.114 5315075.043 10 0 59638 56700.00000 0 -18455697.588 -15566293.606 8351054.458 10 0 59638 57600.00000 0 -17440313.238 -14914298.697 11225543.343 10 0 59638 58500.00000 0 -16072076.020 -14194328.257 13882940.438 10 0 59638 59400.00000 0 -14366305.841 -13462560.125 16271814.229 10 0 59638 60300.00000 0 -12350603.883 -12772512.436 18345887.716 10 0 59638 61200.00000 0 -10063944.666 -12172686.101 20064927.164 10 0 59638 62100.00000 0 -7555303.685 -11704431.630 21395518.506 10 0 59638 63000.00000 0 -4881875.283 -11400129.322 22311716.935 10 0 59638 63900.00000 0 -2106952.353 -11281759.211 22795557.219 10 0 59638 64800.00000 0 702446.651 -11359921.288 22837414.623 10 0 59638 65700.00000 0 3478107.273 -11633348.210 22436208.703 10 0 59638 66600.00000 0 6153202.007 -12088932.494 21599444.817 10 0 59638 67500.00000 0 8664820.915 -12702268.971 20343091.030 10 0 59638 68400.00000 0 10956345.559 -13438691.755 18691290.924 10 0 59638 69300.00000 0 12979567.671 -14254764.100 16675915.984 10 0 59638 70200.00000 0 14696463.991 -15100160.111 14335964.364 10 0 59638 71100.00000 0 16080552.476 -15919860.186 11716816.012 10 0 59638 72000.00000 0 17117772.156 -16656568.054 8869357.494 10 0 59638 72900.00000 0 17806848.818 -17253247.105 5848992.812 10 0 59638 73800.00000 0 18159130.421 -17655667.804 2714559.366 10 0 59638 74700.00000 0 18197898.762 -17814856.803 -472829.145 10 0 59638 75600.00000 0 17957186.610 -17689342.024 -3650989.224 10 0 59638 76500.00000 0 17480150.999 -17247096.311 -6757898.353 10 0 59638 77400.00000 0 16817072.752 -16467095.098 -9732923.995 10 0 59638 78300.00000 0 16023068.603 -15340420.104 -12518024.864 10 0 59638 79200.00000 0 15155614.814 -13870860.724 -15058899.110 10 0 59638 80100.00000 0 14271989.150 -12074986.686 -17306055.282 10 0 59638 81000.00000 0 13426741.361 -9981688.358 -19215784.063 10 0 59638 81900.00000 0 12669300.631 -7631204.057 -20751011.163 10 0 59638 82800.00000 0 12041822.054 -5073675.711 -21882014.676 10 0 59638 83700.00000 0 11577363.311 -2367294.101 -22586993.426 10 0 59638 84600.00000 0 11298468.049 423888.031 -22852476.252 10 0 59638 85500.00000 0 11216214.651 3232382.957 -22673565.589 10 0 59639 0.00000 0 11329768.874 5989833.369 -22054012.252 10 0 59639 900.00000 0 11626457.442 8629611.047 -21006121.222 10 0 59639 1800.00000 0 12082357.307 11089337.592 -19550492.773 10 0 59639 2700.00000 0 12663374.111 13313228.672 -17715604.268 10 0 59639 3600.00000 0 13326762.720 15254162.340 -15537242.653 10 0 59639 4500.00000 0 14023024.682 16875389.061 -13057799.273 10 0 59639 5400.00000 0 14698101.983 18151814.530 -10325441.306 10 0 59639 6300.00000 0 15295774.557 19070804.491 -7393176.049 10 0 59639 7200.00000 0 15760160.838 19632480.495 -4317826.203 10 0 59639 8100.00000 0 16038216.706 19849496.619 -1158935.658 10 0 59639 9000.00000 0 16082128.472 19746308.451 2022373.673 10 0 59639 9900.00000 0 15851500.163 19357966.324 5164572.506 10 0 59639 10800.00000 0 15315243.934 18728484.285 8206900.725 10 0 59639 11700.00000 0 14453094.756 17908853.410 11090528.124 10 0 59639 12600.00000 0 13256685.962 16954782.515 13759678.024 10 0 59639 13500.00000 0 11730140.223 15924260.332 16162693.300 10 0 59639 14400.00000 0 9890150.243 14875040.358 18253025.365 10 0 59639 15300.00000 0 7765544.326 13862152.717 19990128.002 10 0 59639 16200.00000 0 5396352.914 12935546.263 21340239.605 10 0 59639 17100.00000 0 2832412.452 12137958.846 22277039.295 10 0 59639 18000.00000 0 131562.086 11503104.520 22782164.295 10 0 59639 18900.00000 0 -2642494.694 11054253.621 22845578.357 10 0 59639 19800.00000 0 -5422577.291 10803265.700 22465783.364 10 0 59639 20700.00000 0 -8140567.202 10750116.864 21649868.835 10 0 59639 21600.00000 0 -10729995.587 10882942.725 20413396.856 10 0 59639 22500.00000 0 -13128572.876 11178596.805 18780122.823 10 0 59639 23400.00000 0 -15280555.639 11603702.634 16781555.502 10 0 59639 24300.00000 0 -17138852.055 12116156.809 14456363.056 10 0 59639 25200.00000 0 -18666777.518 12667020.847 11849634.883 10 0 59639 26100.00000 0 -19839385.895 13202722.644 9012012.411 10 0 59639 27000.00000 0 -20644319.570 13667474.496 5998705.019 10 0 59639 27900.00000 0 -21082141.510 14005804.639 2868410.100 10 0 59639 28800.00000 0 -21166134.557 14165093.754 -317841.064 10 0 59639 29700.00000 0 -20921576.120 14098007.014 -3497888.033 10 0 59639 30600.00000 0 -20384519.110 13764716.334 -6609671.461 10 0 59639 31500.00000 0 -19600131.465 13134816.240 -9592462.835 10 0 59639 32400.00000 0 -18620665.837 12188849.939 -12388067.739 10 0 59639 33300.00000 0 -17503147.077 10919379.025 -14941977.202 10 0 59639 34200.00000 0 -16306877.238 9331550.139 -17204442.953 10 0 59639 35100.00000 0 -15090865.486 7443133.745 -19131454.436 10 0 59639 36000.00000 0 -13911293.043 5284032.980 -20685597.880 10 0 59639 36900.00000 0 -12819121.325 2895283.390 -21836780.537 10 0 59639 37800.00000 0 -11857944.595 327585.992 -22562806.502 10 0 59639 38700.00000 0 -11062177.335 -2360564.338 -22849793.879 10 0 59639 39600.00000 0 -10455651.741 -5105076.190 -22692426.455 10 0 59639 40500.00000 0 -10050682.768 -7838692.563 -22094036.597 10 0 59639 41400.00000 0 -9847638.021 -10493554.082 -21066519.396 10 0 59639 42300.00000 0 -9835028.305 -13003788.026 -19630081.299 10 0 59639 43200.00000 0 -9990112.694 -15308016.384 -17812829.587 10 0 59639 44100.00000 0 -10279990.505 -17351679.997 -15650211.801 10 0 59639 45000.00000 0 -10663132.433 -19089083.819 -13184316.935 10 0 59639 45900.00000 0 -11091285.045 -20485080.391 -10463052.489 10 0 59639 46800.00000 0 -11511667.646 -21516323.729 -7539213.568 10 0 59639 47700.00000 0 -11869368.697 -22172043.718 -4469462.080 10 0 59639 48600.00000 0 -12109841.058 -22454310.944 -1313235.437 10 0 59639 49500.00000 0 -12181391.460 -22377782.877 1868394.674 10 0 59639 50400.00000 0 -12037560.168 -21968943.509 5013892.108 10 0 59639 51300.00000 0 -11639291.431 -21264869.287 8062432.954 10 0 59639 52200.00000 0 -10956804.064 -20311573.453 10955067.524 10 0 59639 53100.00000 0 -9971083.911 -19161997.979 13635846.208 10 0 59639 54000.00000 0 -8674935.410 -17873736.613 16052888.708 10 0 59639 54900.00000 0 -7073547.475 -16506583.380 18159377.174 10 0 59639 55800.00000 0 -5184548.777 -15120007.931 19914455.016 10 0 59639 56700.00000 0 -3037548.210 -13770662.143 21284014.936 10 0 59639 57600.00000 0 -673177.354 -12510021.077 22241361.468 10 0 59639 58500.00000 0 1858327.895 -11382256.087 22767735.397 10 0 59639 59400.00000 0 4498950.368 -10422428.551 22852689.666 10 0 59639 60300.00000 0 7185046.486 -9655079.696 22494308.796 10 0 59639 61200.00000 0 9849745.901 -9093276.059 21699266.397 10 0 59639 62100.00000 0 12425498.360 -8738151.401 20482718.160 10 0 59639 63000.00000 0 14846663.531 -8578965.505 18868030.551 10 0 59639 63900.00000 0 17052036.741 -8593678.782 16886348.563 10 0 59639 64800.00000 0 18987205.645 -8750019.841 14576009.012 10 0 59639 65700.00000 0 20606638.965 -9007002.193 11981809.077 10 0 59639 66600.00000 0 21875418.957 -9316826.783 9154143.068 10 0 59639 67500.00000 0 22770543.775 -9627090.104 6148023.454 10 0 59639 68400.00000 0 23281743.749 -9883203.930 3022005.064 10 0 59639 69300.00000 0 23411776.017 -10030923.023 -162966.024 10 0 59639 70200.00000 0 23176184.351 -10018871.898 -3344755.337 10 0 59639 71100.00000 0 22602534.023 -9800961.317 -6461269.649 10 0 59639 72000.00000 0 21729154.325 -9338589.640 -9451687.363 10 0 59639 72900.00000 0 20603442.814 -8602533.302 -12257663.662 10 0 59639 73800.00000 0 19279804.295 -7574444.133 -14824484.979 10 0 59639 74700.00000 0 17817313.379 -6247888.409 -17102148.488 10 0 59639 75600.00000 0 16277201.076 -4628882.440 -19046344.394 10 0 59639 76500.00000 0 14720273.160 -2735901.357 -20619321.152 10 0 59639 77400.00000 0 13204370.383 -599360.595 -21790616.600 10 0 59639 78300.00000 0 11781978.219 1739407.941 -22537641.234 10 0 59639 79200.00000 0 10498086.652 4229641.601 -22846103.234 10 0 59639 80100.00000 0 9388389.288 6813031.749 -22710268.240 10 0 59639 81000.00000 0 8477895.981 9425928.285 -22133050.426 10 0 59639 81900.00000 0 7780015.166 12001771.676 -21125934.723 10 0 59639 82800.00000 0 7296142.051 14473651.115 -19708733.323 10 0 59639 83700.00000 0 7015767.292 16776882.791 -17909182.633 10 0 59639 84600.00000 0 6917098.967 18851501.942 -15762389.674 10 0 59639 85500.00000 0 6968169.397 20644566.237 -13310139.639 99